Zurück zum Katalog

FENGYUN 1C DEB

AktivPO
NORAD 30736·DEBRIS·🇨🇳 China

Gestartet May 10, 1999 von Taiyuan Satellite Launch Center

Loading…

Nächste Überflüge (nächste 24 Stunden)

TLE

AktuellSource: Space-Track

Epoche: Sep 14, 2026, 12:38 UTC

1 30736U 99025ASW 26257.52696624  .00001012  00000-0  10408-2 0  9995
2 30736  98.7626 273.0826 0279245  53.6055  95.6073 13.62422267966073

Verfolge FENGYUN 1C DEB in Echtzeit mit AllMySat

Download on the App Store